GW2328 Weather Reports


Display with metric or nautical units.
time (UTC)temp
F
wind
direction
speed
MPH
gust
MPH
rain 1hr
in
rain 24hr
in
rain mn
in
humidity
%
barometer
mb
20260508060014 42 145 0.0 0.0 0.00 0.00 0.00 87 1020.1
20260508055509 43 145 0.0 0.0 0.00 0.00 0.00 87 1020.2
20260508055006 43 145 0.0 0.0 0.00 0.00 0.00 87 1020.0
20260508054503 43 145 0.0 0.0 0.00 0.00 0.00 86 1020.2
20260508054000 43 145 0.0 0.0 0.00 0.00 0.00 86 1020.3
20260508053456 43 145 0.0 0.0 0.00 0.00 0.00 86 1020.4
20260508052954 43 145 0.0 0.0 0.00 0.00 0.00 86 1020.3
20260508052452 43 145 0.0 0.0 0.00 0.00 0.00 86 1020.4
20260508051948 43 145 0.0 0.0 0.00 0.00 0.00 85 1020.3
20260508051443 43 145 0.0 0.0 0.00 0.00 0.00 85 1020.1
20260508050940 43 145 0.0 0.0 0.00 0.00 0.00 85 1020.1
20260508050437 44 145 0.0 0.0 0.00 0.00 0.00 85 1019.9
20260508045933 43 145 0.0 0.0 0.00 0.00 0.00 84 1019.9
20260508045431 44 145 0.0 0.0 0.00 0.00 0.00 84 1019.8
20260508044928 44 145 0.0 0.0 0.00 0.00 0.00 84 1019.9
20260508044425 44 145 0.0 0.0 0.00 0.00 0.00 83 1019.9
20260508043920 44 145 0.0 0.0 0.00 0.00 0.00 83 1019.9
20260508043418 44 145 0.0 0.0 0.00 0.00 0.00 83 1019.9
20260508042914 44 145 0.0 0.0 0.00 0.00 0.00 83 1020.0
20260508042412 44 145 0.0 0.0 0.00 0.00 0.00 82 1020.2
20260508041909 45 145 0.0 0.0 0.00 0.00 0.00 82 1020.1
20260508041405 45 145 0.0 0.0 0.00 0.00 0.00 82 1020.1
20260508040856 45 145 0.0 0.0 0.00 0.00 0.00 81 1020.1
20260508040353 45 145 0.0 0.0 0.00 0.00 0.00 81 1020.0
20260508035851 45 145 0.0 0.0 0.00 0.00 0.00 81 1020.1
20260508035348 45 145 0.0 0.0 0.00 0.00 0.00 80 1020.1
20260508034845 46 145 0.0 0.0 0.00 0.00 0.00 80 1020.1
20260508034342 46 145 0.0 0.0 0.00 0.00 0.00 79 1020.3
20260508033838 46 145 0.0 0.0 0.00 0.00 0.00 79 1020.2
20260508033337 46 145 0.0 0.0 0.00 0.00 0.00 78 1020.0
20260508032834 46 145 0.0 0.0 0.00 0.00 0.00 78 1020.1
20260508032331 46 145 0.0 0.0 0.00 0.00 0.00 77 1019.9
20260508031828 46 145 0.0 0.0 0.00 0.00 0.00 77 1020.2
20260508031325 47 145 0.0 0.0 0.00 0.00 0.00 76 1020.2
20260508030821 47 145 0.0 0.0 0.00 0.00 0.00 75 1020.1
20260508030318 47 145 0.0 0.0 0.00 0.00 0.00 75 1020.2
20260508025815 47 145 0.0 0.0 0.00 0.00 0.00 74 1020.3
20260508025312 47 144 0.0 0.0 0.00 0.00 0.00 73 1020.3
20260508024809 47 144 0.0 0.0 0.00 0.00 0.00 72 1020.3
20260508024305 48 145 0.0 0.0 0.00 0.00 0.00 72 1020.2
20260508023802 48 145 0.0 0.0 0.00 0.00 0.00 71 1020.0
20260508023259 48 145 0.0 0.0 0.00 0.00 0.00 70 1020.0
20260508022755 48 144 0.0 0.0 0.00 0.00 0.00 69 1019.9
20260508022252 48 144 0.0 0.0 0.00 0.00 0.00 68 1019.9
20260508021749 49 144 0.0 0.0 0.00 0.00 0.00 67 1019.8
20260508021244 49 144 0.0 0.0 0.00 0.00 0.00 66 1019.8
20260508020741 49 144 0.0 0.0 0.00 0.00 0.00 66 1019.5
20260508020239 50 144 0.0 0.0 0.00 0.00 0.00 65 1019.4
20260508015735 50 144 0.0 0.0 0.00 0.00 0.00 64 1019.5
20260508015233 50 144 0.0 0.0 0.00 0.00 0.00 63 1019.5
20260508014730 51 144 0.0 0.0 0.00 0.00 0.00 62 1019.7
20260508014226 51 144 0.0 0.0 0.00 0.00 0.00 61 1019.4
20260508013722 51 145 0.0 0.0 0.00 0.00 0.00 60 1019.6
20260508013219 51 144 0.0 0.0 0.00 0.00 0.00 59 1019.4
20260508012717 52 144 0.0 0.0 0.00 0.00 0.00 58 1019.3
20260508012213 52 145 0.0 0.0 0.00 0.00 0.00 58 1019.3
20260508011711 53 145 0.0 0.0 0.00 0.00 0.00 57 1019.0
20260508011208 53 145 0.0 0.0 0.00 0.00 0.00 56 1019.1
20260508010704 54 145 0.0 0.0 0.00 0.00 0.00 55 1019.0
20260508010203 54 144 0.0 0.0 0.00 0.00 0.00 53 1018.9
20260508005659 55 144 0.0 0.0 0.00 0.00 0.00 52 1018.8
20260508004803 55 144 0.0 0.0 0.00 0.00 0.00 48 1018.9
20260508004259 55 144 0.0 0.0 0.00 0.00 0.00 48 1018.9
20260508003755 56 144 0.0 0.0 0.00 0.00 0.00 48 1018.8
20260508003253 56 144 0.0 0.0 0.00 0.00 0.00 47 1018.7
20260508002749 57 144 0.0 0.0 0.00 0.00 0.00 46 1018.7
20260508002247 57 144 0.0 0.0 0.00 0.00 0.00 45 1018.7
20260508001742 58 150 0.0 0.0 0.00 0.00 0.00 44 1018.6
20260508001238 58 150 0.0 0.0 0.00 0.00 0.00 43 1018.7
20260508000734 59 151 0.0 0.0 0.00 0.00 0.00 43 1018.6
20260508000234 59 151 0.0 0.0 0.00 0.00 0.00 42 1018.5
20260507235728 59 151 0.0 0.0 0.00 0.00 0.00 41 1018.6
20260507235226 60 151 0.0 0.0 0.00 0.00 0.00 41 1018.4
20260507234722 60 151 0.0 0.0 0.00 0.00 0.00 40 1018.6
20260507234219 60 209 1.0 2.0 0.00 0.00 0.00 40 1018.4
20260507233715 60 148 0.0 1.0 0.00 0.00 0.00 40 1018.4
20260507233214 61 145 0.0 1.0 0.00 0.00 0.00 40 1018.4
20260507232710 61 147 0.0 0.0 0.00 0.00 0.00 40 1018.5
20260507232208 61 149 0.0 0.0 0.00 0.00 0.00 40 1018.5
20260507231704 61 150 0.0 1.0 0.00 0.00 0.00 39 1018.6
20260507231201 61 141 1.0 2.0 0.00 0.00 0.00 39 1018.4
20260507230657 62 145 0.0 0.0 0.00 0.00 0.00 39 1018.4
20260507230154 62 139 0.0 1.0 0.00 0.00 0.00 38 1018.7
20260507225649 62 139 0.0 1.0 0.00 0.00 0.00 38 1018.5
20260507225146 62 161 1.0 1.0 0.00 0.00 0.00 37 1018.7
20260507224641 62 151 1.0 2.0 0.00 0.00 0.00 38 1018.7
20260507224138 62 142 0.0 0.0 0.00 0.00 0.00 38 1018.6
20260507223634 62 138 0.0 0.0 0.00 0.00 0.00 38 1018.7
20260507223131 62 131 0.0 1.0 0.00 0.00 0.00 37 1018.6
20260507222628 63 144 0.0 0.0 0.00 0.00 0.00 38 1018.7
20260507222124 63 133 0.0 0.0 0.00 0.00 0.00 37 1018.5
20260507221621 63 162 1.0 1.0 0.00 0.00 0.00 36 1018.6
20260507221117 63 150 0.0 2.0 0.00 0.00 0.00 37 1018.7
20260507220615 63 150 1.0 2.0 0.00 0.00 0.00 38 1018.4
20260507220112 63 144 0.0 1.0 0.00 0.00 0.00 37 1018.4
20260507215608 64 149 1.0 2.0 0.00 0.00 0.00 37 1018.4
20260507215106 64 86 2.0 2.0 0.00 0.00 0.00 37 1018.7
20260507214603 65 148 1.0 2.0 0.00 0.00 0.00 37 1018.5
20260507214059 65 171 2.0 2.0 0.00 0.00 0.00 37 1018.6
20260507213555 65 153 1.0 1.0 0.00 0.00 0.00 38 1018.3
20260507213053 64 152 0.0 0.0 0.00 0.00 0.00 36 1018.3
20260507212548 65 150 1.0 2.0 0.00 0.00 0.00 35 1018.4
20260507212046 67 144 0.0 1.0 0.00 0.00 0.00 37 1018.8
20260507211542 66 160 0.0 2.0 0.00 0.00 0.00 37 1018.5
20260507211038 67 142 0.0 1.0 0.00 0.00 0.00 38 1018.7
20260507210536 67 126 1.0 2.0 0.00 0.00 0.00 38 1018.7
20260507210032 66 133 0.0 1.0 0.00 0.00 0.00 38 1018.8
20260507205529 64 160 2.0 5.0 0.00 0.00 0.00 37 1018.9
20260507205025 64 116 2.0 5.0 0.00 0.00 0.00 37 1018.5
20260507204522 64 145 1.0 2.0 0.00 0.00 0.00 37 1018.8
20260507204020 65 138 2.0 2.0 0.00 0.00 0.00 37 1018.8
20260507203517 64 135 0.0 1.0 0.00 0.00 0.00 38 1018.8
20260507203014 64 152 1.0 1.0 0.00 0.00 0.00 38 1018.8
20260507202510 65 164 2.0 2.0 0.00 0.00 0.00 39 1018.9
20260507202006 65 123 1.0 2.0 0.00 0.00 0.00 38 1018.9
20260507201502 65 160 2.0 3.0 0.00 0.00 0.00 38 1019.2
20260507200958 65 139 0.0 2.0 0.00 0.00 0.00 38 1018.8
20260507200454 64 137 0.0 1.0 0.00 0.00 0.00 37 1019.0
20260507195949 64 100 0.0 1.0 0.00 0.00 0.00 37 1019.2
20260507195448 64 109 0.0 2.0 0.00 0.00 0.00 37 1019.3
20260507194945 64 119 2.0 2.0 0.00 0.00 0.00 37 1019.1
20260507194441 63 96 1.0 1.0 0.00 0.00 0.00 37 1019.1
20260507193937 65 142 2.0 3.0 0.00 0.00 0.00 37 1019.3
20260507193435 65 183 0.0 1.0 0.00 0.00 0.00 38 1019.1
20260507192931 65 40 1.0 2.0 0.00 0.00 0.00 38 1019.1
20260507192427 65 205 1.0 2.0 0.00 0.00 0.00 38 1019.3
20260507191925 65 109 3.0 3.0 0.00 0.00 0.00 39 1019.4
20260507191420 63 151 0.0 2.0 0.00 0.00 0.00 38 1019.4
20260507190917 63 138 0.0 3.0 0.00 0.00 0.00 38 1019.3
20260507190415 63 138 2.0 3.0 0.00 0.00 0.00 38 1019.3
20260507185914 64 167 1.0 5.0 0.00 0.00 0.00 38 1019.5
20260507185411 65 146 1.0 3.0 0.00 0.00 0.00 37 1019.4
20260507184907 64 139 1.0 2.0 0.00 0.00 0.00 38 1019.5
20260507184405 63 146 1.0 2.0 0.00 0.00 0.00 38 1019.4
20260507183902 62 153 0.0 3.0 0.00 0.00 0.00 37 1019.4
20260507183359 62 112 1.0 2.0 0.00 0.00 0.00 38 1019.3
20260507182857 62 144 1.0 2.0 0.00 0.00 0.00 38 1019.6
20260507182352 62 111 1.0 2.0 0.00 0.00 0.00 38 1019.7
20260507181849 62 252 2.0 2.0 0.00 0.00 0.00 38 1019.5
20260507181344 63 328 3.0 5.0 0.00 0.00 0.00 38 1019.6
20260507180842 62 144 0.0 2.0 0.00 0.00 0.00 39 1019.6
20260507180338 62 133 1.0 2.0 0.00 0.00 0.00 39 1019.8
20260507175834 62 138 0.0 1.0 0.00 0.00 0.00 39 1019.9
20260507175331 62 160 0.0 1.0 0.00 0.00 0.00 40 1019.8
20260507174829 61 101 3.0 6.0 0.00 0.00 0.00 39 1019.8
20260507174326 62 357 3.0 5.0 0.00 0.00 0.00 39 1019.9
20260507173823 63 108 1.0 3.0 0.00 0.00 0.00 40 1020.1
20260507173320 63 129 1.0 1.0 0.00 0.00 0.00 40 1020.1
20260507172817 62 122 1.0 2.0 0.00 0.00 0.00 39 1020.0
20260507172314 63 141 0.0 1.0 0.00 0.00 0.00 40 1020.3
20260507171809 61 142 1.0 2.0 0.00 0.00 0.00 40 1020.0
20260507171306 62 140 0.0 3.0 0.00 0.00 0.00 40 1020.2
20260507170803 61 183 2.0 3.0 0.00 0.00 0.00 40 1020.3
20260507170300 61 140 0.0 1.0 0.00 0.00 0.00 40 1020.6
20260507165755 61 134 0.0 1.0 0.00 0.00 0.00 40 1020.4
20260507165252 60 140 0.0 3.0 0.00 0.00 0.00 40 1020.6
20260507164748 60 142 0.0 3.0 0.00 0.00 0.00 40 1020.6
20260507164245 60 144 1.0 3.0 0.00 0.00 0.00 41 1020.7
20260507163742 60 139 0.0 2.0 0.00 0.00 0.00 41 1020.8
20260507163240 61 84 2.0 2.0 0.00 0.00 0.00 41 1020.7
20260507162736 61 127 0.0 0.0 0.00 0.00 0.00 42 1020.9
20260507162232 60 145 1.0 2.0 0.00 0.00 0.00 42 1021.1
20260507161729 59 148 1.0 2.0 0.00 0.00 0.00 42 1020.9
20260507161226 59 158 2.0 2.0 0.00 0.00 0.00 42 1021.2
20260507160721 59 137 0.0 5.0 0.00 0.00 0.00 42 1020.7
20260507160218 58 146 0.0 0.0 0.00 0.00 0.00 42 1020.9
20260507155714 59 151 2.0 3.0 0.00 0.00 0.00 42 1021.0
20260507155210 59 211 1.0 2.0 0.00 0.00 0.00 43 1021.0
20260507154707 59 133 1.0 1.0 0.00 0.00 0.00 44 1020.8
20260507154205 59 139 0.0 1.0 0.00 0.00 0.00 45 1020.9
20260507153701 60 133 1.0 3.0 0.00 0.00 0.00 47 1020.8
20260507153157 58 135 0.0 5.0 0.00 0.00 0.00 47 1021.0
20260507152654 58 130 0.0 1.0 0.00 0.00 0.00 48 1021.2
20260507152150 57 131 0.0 1.0 0.00 0.00 0.00 48 1020.9
20260507151646 57 126 1.0 1.0 0.00 0.00 0.00 49 1020.9
20260507151143 57 133 1.0 1.0 0.00 0.00 0.00 49 1020.8
20260507150640 57 137 0.0 2.0 0.00 0.00 0.00 50 1021.0
20260507150137 56 131 1.0 2.0 0.00 0.00 0.00 51 1020.9
20260507145632 56 138 0.0 2.0 0.00 0.00 0.00 52 1021.0
20260507145130 55 210 3.0 3.0 0.00 0.00 0.00 54 1021.0
20260507144626 55 144 2.0 3.0 0.00 0.00 0.00 55 1021.2
20260507144124 54 150 1.0 2.0 0.00 0.00 0.00 56 1020.9
20260507143620 54 136 1.0 3.0 0.00 0.00 0.00 57 1021.1
20260507143118 54 136 1.0 3.0 0.00 0.00 0.00 59 1021.1
20260507142613 54 204 1.0 3.0 0.00 0.00 0.00 61 1021.1
20260507142110 53 121 1.0 1.0 0.00 0.00 0.00 63 1021.2
20260507141607 53 142 0.0 3.0 0.00 0.00 0.00 65 1021.2
20260507141103 53 125 1.0 2.0 0.00 0.00 0.00 67 1021.1
20260507140600 53 136 1.0 1.0 0.00 0.00 0.00 69 1020.8
20260507140057 52 142 0.0 2.0 0.00 0.00 0.00 72 1021.0
20260507135554 52 151 1.0 2.0 0.00 0.00 0.00 74 1021.1
20260507135052 52 148 1.0 1.0 0.00 0.00 0.00 77 1021.1
20260507134548 52 146 0.0 1.0 0.00 0.00 0.00 79 1021.1
20260507134044 51 143 0.0 1.0 0.00 0.00 0.00 81 1020.9
20260507133540 51 132 0.0 1.0 0.00 0.00 0.00 82 1021.1
20260507133038 51 148 0.0 0.0 0.00 0.00 0.00 84 1021.1
20260507132534 50 148 0.0 0.0 0.00 0.00 0.00 85 1021.1
20260507132031 50 148 1.0 1.0 0.00 0.00 0.00 86 1020.9
20260507131528 50 143 0.0 0.0 0.00 0.00 0.00 88 1020.7
20260507131025 48 136 0.0 2.0 0.00 0.00 0.00 89 1021.0
20260507130522 48 134 0.0 0.0 0.00 0.00 0.00 90 1021.0
20260507130020 47 134 0.0 0.0 0.00 0.00 0.00 91 1020.8
20260507125518 47 134 0.0 0.0 0.00 0.00 0.00 92 1020.9
20260507125015 46 133 0.0 0.0 0.00 0.00 0.00 92 1020.9
20260507124512 46 135 0.0 0.0 0.00 0.00 0.00 93 1021.0
20260507124010 45 135 0.0 0.0 0.00 0.00 0.00 93 1021.0
20260507123508 44 135 0.0 1.0 0.00 0.00 0.00 93 1020.9
20260507123004 44 130 0.0 1.0 0.00 0.00 0.00 94 1021.1
20260507122459 44 142 0.0 0.0 0.00 0.00 0.00 94 1020.9
20260507121955 43 143 0.0 0.0 0.00 0.00 0.00 94 1020.8
20260507121451 43 143 0.0 0.0 0.00 0.00 0.00 93 1021.0
20260507120947 42 143 0.0 0.0 0.00 0.00 0.00 93 1020.9
20260507120443 42 143 0.0 0.0 0.00 0.00 0.00 93 1020.9
20260507115941 42 143 0.0 0.0 0.00 0.00 0.00 93 1021.1
20260507115436 41 143 0.0 0.0 0.00 0.00 0.00 93 1020.9
20260507114932 41 143 0.0 0.0 0.00 0.00 0.00 93 1021.1
20260507114429 41 143 0.0 0.0 0.00 0.00 0.00 93 1021.1
20260507113926 40 143 0.0 0.0 0.00 0.00 0.00 93 1021.1
20260507113423 40 143 0.0 0.0 0.00 0.00 0.00 93 1021.1
20260507112921 40 143 0.0 0.0 0.00 0.00 0.00 93 1020.8
20260507112418 40 143 0.0 0.0 0.00 0.00 0.00 93 1021.0
20260507111915 40 143 0.0 0.0 0.00 0.00 0.00 93 1020.9
20260507111412 40 143 0.0 0.0 0.00 0.00 0.00 93 1020.8
20260507110908 40 143 0.0 0.0 0.00 0.00 0.00 93 1020.8
20260507110404 40 143 0.0 0.0 0.00 0.00 0.00 93 1020.5
20260507105902 40 143 0.0 0.0 0.00 0.00 0.00 93 1020.8
20260507105358 40 143 0.0 0.0 0.00 0.00 0.00 93 1020.5
20260507104855 40 143 0.0 0.0 0.00 0.00 0.00 93 1020.9
20260507104351 41 143 0.0 0.0 0.00 0.00 0.00 93 1020.8
20260507103847 41 143 0.0 0.0 0.00 0.00 0.00 93 1020.7
20260507103344 41 143 0.0 0.0 0.00 0.00 0.00 93 1020.5
20260507102841 41 143 0.0 0.0 0.00 0.00 0.00 93 1020.5
20260507102337 41 143 0.0 0.0 0.00 0.00 0.00 93 1020.5
20260507101833 41 143 0.0 0.0 0.00 0.00 0.00 93 1020.1
20260507101328 41 143 0.0 0.0 0.00 0.00 0.00 93 1020.2
20260507100825 42 143 0.0 0.0 0.00 0.00 0.00 93 1020.5
20260507100323 42 143 0.0 0.0 0.00 0.00 0.00 93 1020.4
20260507095821 42 143 0.0 0.0 0.00 0.00 0.00 93 1020.4
20260507095317 42 143 0.0 0.0 0.00 0.00 0.00 93 1020.4
20260507094815 42 143 0.0 0.0 0.00 0.00 0.00 93 1020.5
20260507094311 42 143 0.0 0.0 0.00 0.00 0.00 93 1020.2
20260507093808 42 143 0.0 0.0 0.00 0.00 0.00 94 1020.3
20260507093307 42 143 0.0 0.0 0.00 0.00 0.00 93 1020.1
20260507092804 42 143 0.0 0.0 0.00 0.00 0.00 94 1020.2
20260507092300 42 143 0.0 0.0 0.00 0.00 0.00 93 1020.2
20260507091757 42 143 0.0 0.0 0.00 0.00 0.00 93 1020.2
20260507091253 42 136 0.0 0.0 0.00 0.00 0.00 93 1020.3
20260507090748 42 136 0.0 0.0 0.00 0.00 0.00 93 1020.3
20260507090245 42 136 0.0 0.0 0.00 0.00 0.00 93 1020.3
20260507085742 42 136 0.0 0.0 0.00 0.00 0.00 93 1020.2
20260507085238 42 136 0.0 0.0 0.00 0.00 0.00 93 1020.1
20260507084736 42 136 0.0 0.0 0.00 0.00 0.00 93 1020.1
20260507084232 42 136 0.0 0.0 0.00 0.00 0.00 93 1020.1
20260507083730 42 136 0.0 0.0 0.00 0.00 0.00 93 1019.9
20260507083226 42 136 0.0 0.0 0.00 0.00 0.00 93 1019.7
20260507082722 42 136 0.0 0.0 0.00 0.00 0.00 93 1019.8
20260507082218 42 136 0.0 0.0 0.00 0.00 0.00 93 1019.9
20260507081715 42 136 0.0 0.0 0.00 0.00 0.00 93 1019.8
20260507081211 42 136 0.0 0.0 0.00 0.00 0.00 93 1020.0
20260507080708 43 136 0.0 0.0 0.00 0.00 0.00 92 1019.6
20260507080204 43 136 0.0 0.0 0.00 0.00 0.00 92 1019.7
20260507075659 43 135 0.0 0.0 0.00 0.00 0.00 92 1019.6
20260507075156 43 136 0.0 0.0 0.00 0.00 0.00 92 1019.6
20260507074652 43 136 0.0 0.0 0.00 0.00 0.00 92 1019.6
20260507074151 43 135 0.0 0.0 0.00 0.00 0.00 92 1019.6
20260507073647 43 135 0.0 0.0 0.00 0.00 0.00 92 1019.7
20260507073143 43 136 0.0 0.0 0.00 0.00 0.00 92 1019.5
20260507072641 44 136 0.0 0.0 0.00 0.00 0.00 92 1019.5
20260507072138 44 135 0.0 0.0 0.00 0.00 0.00 92 1019.4
20260507071636 44 136 0.0 0.0 0.00 0.00 0.00 92 1019.5
20260507071132 44 135 0.0 0.0 0.00 0.00 0.00 92 1019.5
20260507070629 44 136 0.0 0.0 0.00 0.00 0.00 92 1019.4
20260507070126 45 136 0.0 0.0 0.00 0.00 0.00 92 1019.5
20260507065622 45 136 0.0 0.0 0.00 0.00 0.00 91 1019.5
20260507065119 45 136 0.0 0.0 0.00 0.00 0.00 91 1019.6
20260507064617 45 136 0.0 0.0 0.00 0.00 0.00 91 1019.6
20260507064116 45 136 0.0 0.0 0.00 0.00 0.00 91 1019.8
20260507063613 45 136 0.0 0.0 0.00 0.00 0.00 91 1019.9
20260507063110 45 136 0.0 0.0 0.00 0.00 0.00 91 1019.6
20260507062606 45 136 0.0 0.0 0.00 0.00 0.00 91 1019.9
20260507062104 45 136 0.0 0.0 0.00 0.00 0.00 91 1019.8
20260507061601 45 136 0.0 0.0 0.00 0.00 0.00 91 1019.8
20260507061059 45 136 0.0 0.0 0.00 0.00 0.00 91 1019.9
20260507060557 45 136 0.0 0.0 0.00 0.00 0.00 90 1019.7